DW8769 Cullera ES current weather conditions

sailwx.info

Wind from 069 at 0 knots gusting 6

Air temperature 15.0° C
Dewpoint 11.9° C

Last reported at 2020-Feb-22 15:00 UTC.
Time now 2020-Feb-22 15:51 UTC

Location: N 39°10' W 000°15'.
View on Google Maps.

See reports from other nearby stations

  
Tides and Currents Weather Stations Pressure Air Temp Water Temp Dewpoint Dewpoint Depression Visibility Wind Speed Wind Dir Waves Ship Positions
date/time (UTC)wind fromknots sea level pressurealtimeterstation pressurevisibilityair tempwater tempwave heightnotes
2020-Feb-22 15:00 069 0 gusting 6 15.0
2020-Feb-22 14:45 080 1 gusting 6 15.0
2020-Feb-22 14:30 067 2 gusting 6 15.0
2020-Feb-22 14:15 072 3 gusting 6 15.0
2020-Feb-22 14:01 073 3 gusting 6 15.0
2020-Feb-22 13:46 054 3 gusting 6 15.0
2020-Feb-22 13:15 074 1 gusting 7 14.4
2020-Feb-22 13:00 095 4 gusting 6 14.4
2020-Feb-22 12:46 067 2 gusting 7 14.4
2020-Feb-22 12:30 059 2 gusting 6 13.9
2020-Feb-22 12:16 080 4 gusting 6 13.9
2020-Feb-22 12:00 057 1 gusting 5 13.9
2020-Feb-22 11:45 071 2 gusting 6 14.4
2020-Feb-22 11:30 059 15.0
2020-Feb-22 11:16 076 14.4
2020-Feb-22 11:01 077 14.4
2020-Feb-22 10:45 086 14.4
2020-Feb-22 10:31 086 0 gusting 4 13.9
2020-Feb-22 10:15 083 0 gusting 4 14.4
2020-Feb-22 10:00 080 14.4
2020-Feb-22 09:45 082 13.9
2020-Feb-22 09:30 128 14.4
2020-Feb-22 09:15 128 14.4
2020-Feb-22 09:02 128 13.9
2020-Feb-22 08:46 128 13.3
2020-Feb-22 08:32 075 12.8
2020-Feb-22 08:16 075 12.2
2020-Feb-22 08:01 075 12.2
2020-Feb-22 07:46 076 11.7
2020-Feb-22 07:31 076 10.6
2020-Feb-22 07:16 076 10.0
2020-Feb-22 07:00 076 10.0
2020-Feb-22 06:46 076 11.1
2020-Feb-22 06:30 076 11.1
2020-Feb-22 06:16 076 11.1
2020-Feb-22 06:01 081 11.1
2020-Feb-22 05:45 094 11.1
2020-Feb-22 05:31 094 11.1
2020-Feb-22 05:15 094 10.6
2020-Feb-22 05:00 094 10.6
2020-Feb-22 04:46 094 10.6
2020-Feb-22 04:30 094 10.6
2020-Feb-22 04:16 094 10.6
2020-Feb-22 04:00 058 10.6
2020-Feb-22 03:46 058 10.6
2020-Feb-22 03:31 058 11.1
2020-Feb-22 03:15 055 1 gusting 4 11.1
2020-Feb-22 03:00 115 11.1
2020-Feb-22 02:46 125 11.1
2020-Feb-22 02:31 125 11.1
2020-Feb-22 02:16 125 11.1
2020-Feb-22 02:00 125 11.1
2020-Feb-22 01:45 125 11.1
2020-Feb-22 01:30 125 11.1
2020-Feb-22 01:15 125 12.2
2020-Feb-22 01:01 125 12.8
2020-Feb-22 00:45 215 0 gusting 7 12.2
2020-Feb-22 00:31 302 4 gusting 9 12.2
2020-Feb-22 00:15 302 4 gusting 12 12.2
2020-Feb-22 00:00 297 2 gusting 9 11.7
2020-Feb-21 23:45 355 3 gusting 9 11.7
2020-Feb-21 23:30 336 3 gusting 11 11.7
2020-Feb-21 23:15 337 4 gusting 8 11.7
2020-Feb-21 23:01 355 11.7
2020-Feb-21 22:45 350 11.7
2020-Feb-21 22:30 315 11.7
2020-Feb-21 22:15 069 11.7
2020-Feb-21 22:00 114 11.7
2020-Feb-21 21:45 113 12.2
2020-Feb-21 21:30 113 12.8
2020-Feb-21 21:15 113 12.2
2020-Feb-21 21:01 113 12.2
2020-Feb-21 20:45 113 12.8
2020-Feb-21 20:30 113 12.8
2020-Feb-21 20:15 111 12.8
2020-Feb-21 20:00 111 12.8
2020-Feb-21 19:45 111 13.3
2020-Feb-21 19:30 111 13.3
2020-Feb-21 19:15 111 13.3
2020-Feb-21 19:00 126 13.3
2020-Feb-21 18:45 111 1 gusting 4 13.3
2020-Feb-21 18:30 122 13.3
2020-Feb-21 18:15 109 13.3
2020-Feb-21 18:01 077 13.3
2020-Feb-21 17:45 111 1 gusting 6 13.3
2020-Feb-21 17:30 157 0 gusting 6 13.3
2020-Feb-21 17:16 115 13.9
2020-Feb-21 17:00 156 0 gusting 3 13.9
2020-Feb-21 16:45 096 13.3
2020-Feb-21 16:30 100 0 gusting 6 13.9
2020-Feb-21 16:15 084 2 gusting 6 13.3
2020-Feb-21 16:00 086 1 gusting 4 13.9
2020-Feb-21 15:45 106 3 gusting 6 13.9
2020-Feb-21 15:30 077 3 gusting 7 13.9
2020-Feb-21 15:16 106 2 gusting 7 13.9
2020-Feb-21 15:01 088 1 gusting 7 13.9
2020-Feb-21 14:46 074 5 gusting 8 13.3
2020-Feb-21 14:31 087 5 gusting 8 13.3
2020-Feb-21 14:15 081 5 gusting 8 13.3
2020-Feb-21 14:01 077 2 gusting 7 13.9
2020-Feb-21 13:45 067 1 gusting 8 13.3
2020-Feb-21 13:30 071 6 gusting 10 13.3
2020-Feb-21 13:15 088 6 gusting 9 13.3
2020-Feb-21 13:01 027 2 gusting 7 13.3
2020-Feb-21 12:45 034 2 gusting 7 13.3
2020-Feb-21 12:30 072 3 gusting 6 13.3
2020-Feb-21 12:15 046 2 gusting 6 13.9
2020-Feb-21 12:01 082 14.4
2020-Feb-21 11:45 090 1 gusting 6 14.4
2020-Feb-21 11:30 063 1 gusting 5 13.9
2020-Feb-21 11:15 092 0 gusting 5 14.4
2020-Feb-21 11:00 140 14.4
2020-Feb-21 10:45 249 0 gusting 2 13.9
2020-Feb-21 10:30 251 13.3
2020-Feb-21 10:15 250 0 gusting 5 13.3
2020-Feb-21 10:00 254 12.8
2020-Feb-21 09:45 249 12.8
2020-Feb-21 09:30 309 0 gusting 4 12.8
2020-Feb-21 09:15 277 0 gusting 3 12.2
2020-Feb-21 09:00 269 0 gusting 6 11.7
2020-Feb-21 08:45 276 1 gusting 4 11.7
2020-Feb-21 08:31 247 11.7
2020-Feb-21 08:15 341 3 gusting 6 11.1
2020-Feb-21 08:01 017 0 gusting 4 10.6
2020-Feb-21 07:46 323 10.0
2020-Feb-21 07:31 334 10.0
2020-Feb-21 07:16 341 9.4
2020-Feb-21 07:01 263 9.4
2020-Feb-21 06:46 265 10.0
2020-Feb-21 06:31 265 10.6
2020-Feb-21 06:16 265 10.6
2020-Feb-21 06:01 265 10.6
2020-Feb-21 05:46 264 11.1
2020-Feb-21 05:31 264 11.1
2020-Feb-21 05:15 265 11.1
2020-Feb-21 05:01 265 11.1
2020-Feb-21 04:46 265 10.6
2020-Feb-21 04:31 265 10.0
2020-Feb-21 04:15 265 10.0
2020-Feb-21 04:00 264 10.0
2020-Feb-21 03:46 264 10.6
2020-Feb-21 03:30 263 10.0
2020-Feb-21 03:15 263 10.0
2020-Feb-21 03:00 263 10.0
2020-Feb-21 02:45 263 10.0
2020-Feb-21 02:31 263 0 gusting 3 10.6
2020-Feb-21 02:15 263 10.6
2020-Feb-21 02:01 298 10.6
2020-Feb-21 01:45 253 11.1
2020-Feb-21 01:30 254 0 gusting 4 11.7
2020-Feb-21 01:15 340 0 gusting 6 11.7
2020-Feb-21 01:01 315 2 gusting 7 11.7
2020-Feb-21 00:45 325 3 gusting 11 11.7
2020-Feb-21 00:30 319 5 gusting 10 11.7
2020-Feb-21 00:15 338 0 gusting 8 11.7
2020-Feb-21 00:01 342 3 gusting 8 11.7
2020-Feb-20 23:45 276 4 gusting 8 11.7
2020-Feb-20 23:30 238 5 gusting 8 11.1
2020-Feb-20 23:15 300 5 gusting 11 11.1
2020-Feb-20 23:01 325 6 gusting 12 11.1
2020-Feb-20 22:45 330 5 gusting 11 11.1
2020-Feb-20 22:30 360 5 gusting 11 10.6
2020-Feb-20 22:16 268 3 gusting 8 10.6
2020-Feb-20 22:00 256 11.1
2020-Feb-20 21:45 342 2 gusting 6 11.1
2020-Feb-20 21:30 005 0 gusting 4 11.1
2020-Feb-20 21:15 253 11.1
2020-Feb-20 21:00 253 11.7
2020-Feb-20 20:45 083 12.8
2020-Feb-20 20:30 083 13.3
2020-Feb-20 20:15 088 13.3
2020-Feb-20 20:00 088 13.9
2020-Feb-20 19:45 088 13.9
2020-Feb-20 19:30 101 13.9
2020-Feb-20 19:15 117 13.9
2020-Feb-20 19:00 117 13.9
2020-Feb-20 18:45 088 13.9
2020-Feb-20 18:30 118 14.4
2020-Feb-20 18:15 096 14.4
2020-Feb-20 18:00 099 14.4
2020-Feb-20 17:45 105 15.0
2020-Feb-20 17:30 099 15.0
2020-Feb-20 17:15 088 15.6
2020-Feb-20 17:00 088 15.0
2020-Feb-20 16:45 093 1 gusting 6 15.0
2020-Feb-20 16:30 144 0 gusting 5 15.0
2020-Feb-20 16:15 090 3 gusting 7 15.0
2020-Feb-20 16:00 098 3 gusting 7 15.0
2020-Feb-20 15:45 074 2 gusting 7 14.4
2020-Feb-20 15:30 115 3 gusting 9 15.0
2020-Feb-20 15:15 117 2 gusting 9 15.0
2020-Feb-20 15:00 135 1 gusting 7 14.4